Time,TemperatureF,DewpointF,PressureIn,WindDirection,WindDirectionDegrees,WindSpeedMPH,WindSpeedGustMPH,Humidity,HourlyPrecipIn,Conditions,Clouds,dailyrainin,SoftwareType,DateUTC
2017-12-14 00:02:00,21.4,-99.9,29.51,North,-9999,-999.9,0.0,0,0.00,,,0.00,WUHU216HW,2017-12-14 05:02:00,
2017-12-14 00:07:00,21.4,-99.9,29.51,North,-9999,-999.9,0.0,0,0.00,,,0.00,WUHU216HW,2017-12-14 05:07:00,
2017-12-14 00:10:00,21.4,-99.9,29.40,North,-9999,-999.9,0.0,0,0.00,,,0.00,WUHU216HW,2017-12-14 05:10:00,
2017-12-14 00:12:00,21.4,-99.9,29.52,North,-9999,-999.9,0.0,0,0.00,,,0.00,WUHU216HW,2017-12-14 05:12:00,
2017-12-14 00:17:00,21.4,-99.9,29.53,North,-9999,-999.9,0.0,0,0.00,,,0.00,WUHU216HW,2017-12-14 05:17:00,
2017-12-14 00:22:00,21.4,-99.9,29.53,North,-9999,-999.9,0.0,0,0.00,,,0.00,WUHU216HW,2017-12-14 05:22:00,
2017-12-14 00:24:00,21.4,-99.9,29.42,North,-9999,-999.9,0.0,0,0.00,,,0.00,WUHU216HW,2017-12-14 05:24:00,
2017-12-14 00:37:00,21.4,-99.9,29.54,North,-9999,-999.9,0.0,0,0.00,,,0.00,WUHU216HW,2017-12-14 05:37:00,
2017-12-14 00:39:00,21.4,-99.9,29.54,North,-9999,-999.9,0.0,0,0.00,,,0.00,WUHU216HW,2017-12-14 05:39:00,
2017-12-14 00:44:00,21.4,-99.9,29.55,North,-9999,-999.9,0.0,0,0.00,,,0.00,WUHU216HW,2017-12-14 05:44:00,
2017-12-14 00:53:00,21.4,-99.9,29.44,North,-9999,-999.9,0.0,0,0.00,,,0.00,WUHU216HW,2017-12-14 05:53:00,
2017-12-14 01:03:00,21.2,-99.9,29.56,North,-9999,-999.9,0.0,0,0.00,,,0.00,WUHU216HW,2017-12-14 06:03:00,
2017-12-14 01:08:00,21.2,-99.9,29.56,North,-9999,-999.9,0.0,0,0.00,,,0.00,WUHU216HW,2017-12-14 06:08:00,
2017-12-14 01:13:00,21.2,-99.9,29.57,North,-9999,-999.9,0.0,0,0.00,,,0.00,WUHU216HW,2017-12-14 06:13:00,
2017-12-14 01:18:00,21.2,-99.9,29.57,North,-9999,-999.9,0.0,0,0.00,,,0.00,WUHU216HW,2017-12-14 06:18:00,
2017-12-14 01:28:00,21.4,-99.9,29.58,North,-9999,-999.9,0.0,0,0.00,,,0.00,WUHU216HW,2017-12-14 06:28:00,
2017-12-14 01:33:00,21.2,-99.9,29.59,North,-9999,-999.9,0.0,0,0.00,,,0.00,WUHU216HW,2017-12-14 06:33:00,
2017-12-14 01:48:00,21.4,-99.9,29.60,North,-9999,-999.9,0.0,0,0.00,,,0.00,WUHU216HW,2017-12-14 06:48:00,
2017-12-14 01:58:00,21.6,-99.9,29.61,North,-9999,-999.9,0.0,0,0.00,,,0.00,WUHU216HW,2017-12-14 06:58:00,
2017-12-14 01:59:00,21.6,-99.9,29.50,North,-9999,-999.9,0.0,0,0.00,,,0.00,WUHU216HW,2017-12-14 06:59:00,
2017-12-14 02:03:00,21.6,-99.9,29.61,North,-9999,-999.9,0.0,0,0.00,,,0.00,WUHU216HW,2017-12-14 07:03:00,
2017-12-14 02:08:00,21.6,-99.9,29.62,North,-9999,-999.9,0.0,0,0.00,,,0.00,WUHU216HW,2017-12-14 07:08:00,
2017-12-14 02:13:00,21.6,-99.9,29.63,North,-9999,-999.9,0.0,0,0.00,,,0.00,WUHU216HW,2017-12-14 07:13:00,
2017-12-14 02:18:00,21.4,-99.9,29.64,North,-9999,-999.9,0.0,0,0.00,,,0.00,WUHU216HW,2017-12-14 07:18:00,
2017-12-14 02:23:00,21.6,-99.9,29.64,North,-9999,-999.9,0.0,0,0.00,,,0.00,WUHU216HW,2017-12-14 07:23:00,
2017-12-14 02:28:00,21.6,-99.9,29.65,North,-9999,-999.9,0.0,0,0.00,,,0.00,WUHU216HW,2017-12-14 07:28:00,
2017-12-14 02:32:00,21.8,-99.9,29.54,North,-9999,-999.9,0.0,0,0.00,,,0.00,WUHU216HW,2017-12-14 07:32:00,
2017-12-14 02:38:00,22.0,-99.9,29.66,North,-9999,-999.9,0.0,0,0.00,,,0.00,WUHU216HW,2017-12-14 07:38:00,
2017-12-14 02:43:00,21.8,-99.9,29.67,North,-9999,-999.9,0.0,0,0.00,,,0.00,WUHU216HW,2017-12-14 07:43:00,
2017-12-14 02:47:00,21.8,-99.9,29.56,North,-9999,-999.9,0.0,0,0.00,,,0.00,WUHU216HW,2017-12-14 07:47:00,
2017-12-14 02:52:00,21.8,-99.9,29.68,North,-9999,-999.9,0.0,0,0.00,,,0.00,WUHU216HW,2017-12-14 07:52:00,
2017-12-14 02:53:00,21.8,-99.9,29.57,North,-9999,-999.9,0.0,0,0.00,,,0.00,WUHU216HW,2017-12-14 07:53:00,
2017-12-14 02:57:00,21.6,-99.9,29.69,North,-9999,-999.9,0.0,0,0.00,,,0.00,WUHU216HW,2017-12-14 07:57:00,
2017-12-14 03:02:00,21.2,-99.9,29.69,North,-9999,-999.9,0.0,0,0.00,,,0.00,WUHU216HW,2017-12-14 08:02:00,
2017-12-14 03:07:00,21.1,-99.9,29.70,North,-9999,-999.9,0.0,0,0.00,,,0.00,WUHU216HW,2017-12-14 08:07:00,
2017-12-14 03:12:00,20.9,-99.9,29.70,North,-9999,-999.9,0.0,0,0.00,,,0.00,WUHU216HW,2017-12-14 08:12:00,
2017-12-14 03:17:00,20.7,-99.9,29.71,North,-9999,-999.9,0.0,0,0.00,,,0.00,WUHU216HW,2017-12-14 08:17:00,
2017-12-14 03:22:00,20.5,-99.9,29.72,North,-9999,-999.9,0.0,0,0.00,,,0.00,WUHU216HW,2017-12-14 08:22:00,
2017-12-14 03:27:00,20.3,-99.9,29.73,North,-9999,-999.9,0.0,0,0.00,,,0.00,WUHU216HW,2017-12-14 08:27:00,
2017-12-14 03:37:00,20.3,-99.9,29.72,North,-9999,-999.9,0.0,0,0.00,,,0.00,WUHU216HW,2017-12-14 08:37:00,
2017-12-14 03:42:00,20.2,-99.9,29.72,North,-9999,-999.9,0.0,0,0.00,,,0.00,WUHU216HW,2017-12-14 08:42:00,
2017-12-14 03:52:00,20.2,-99.9,29.73,North,-9999,-999.9,0.0,0,0.00,,,0.00,WUHU216HW,2017-12-14 08:52:00,
2017-12-14 03:57:00,20.0,-99.9,29.74,North,-9999,-999.9,0.0,0,0.00,,,0.00,WUHU216HW,2017-12-14 08:57:00,
2017-12-14 03:58:00,20.0,-99.9,29.74,North,-9999,-999.9,0.0,0,0.00,,,0.00,WUHU216HW,2017-12-14 08:58:00,
2017-12-14 04:03:00,20.0,-99.9,29.75,North,-9999,-999.9,0.0,0,0.00,,,0.00,WUHU216HW,2017-12-14 09:03:00,
2017-12-14 04:08:00,20.0,-99.9,29.76,North,-9999,-999.9,0.0,0,0.00,,,0.00,WUHU216HW,2017-12-14 09:08:00,
2017-12-14 04:13:00,19.8,-99.9,29.76,North,-9999,-999.9,0.0,0,0.00,,,0.00,WUHU216HW,2017-12-14 09:13:00,
2017-12-14 04:18:00,19.8,-99.9,29.76,North,-9999,-999.9,0.0,0,0.00,,,0.00,WUHU216HW,2017-12-14 09:18:00,
2017-12-14 04:19:00,19.8,-99.9,29.65,North,-9999,-999.9,0.0,0,0.00,,,0.00,WUHU216HW,2017-12-14 09:19:00,
2017-12-14 04:23:00,19.6,-99.9,29.76,North,-9999,-999.9,0.0,0,0.00,,,0.00,WUHU216HW,2017-12-14 09:23:00,
2017-12-14 04:28:00,19.3,-99.9,29.76,North,-9999,-999.9,0.0,0,0.00,,,0.00,WUHU216HW,2017-12-14 09:28:00,
2017-12-14 04:33:00,19.1,-99.9,29.77,North,-9999,-999.9,0.0,0,0.00,,,0.00,WUHU216HW,2017-12-14 09:33:00,
2017-12-14 04:38:00,18.7,-99.9,29.77,North,-9999,-999.9,0.0,0,0.00,,,0.00,WUHU216HW,2017-12-14 09:38:00,
2017-12-14 04:43:00,18.5,-99.9,29.78,North,-9999,-999.9,0.0,0,0.00,,,0.00,WUHU216HW,2017-12-14 09:43:00,
2017-12-14 04:48:00,18.2,-99.9,29.78,North,-9999,-999.9,0.0,0,0.00,,,0.00,WUHU216HW,2017-12-14 09:48:00,
2017-12-14 04:53:00,18.0,-99.9,29.77,North,-9999,-999.9,0.0,0,0.00,,,0.00,WUHU216HW,2017-12-14 09:53:00,
2017-12-14 04:58:00,17.8,-99.9,29.78,North,-9999,-999.9,0.0,0,0.00,,,0.00,WUHU216HW,2017-12-14 09:58:00,
2017-12-14 04:59:00,17.6,-99.9,29.67,North,-9999,-999.9,0.0,0,0.00,,,0.00,WUHU216HW,2017-12-14 09:59:00,
2017-12-14 05:03:00,17.6,-99.9,29.79,North,-9999,-999.9,0.0,0,0.00,,,0.00,WUHU216HW,2017-12-14 10:03:00,
2017-12-14 05:08:00,17.5,-99.9,29.79,North,-9999,-999.9,0.0,0,0.00,,,0.00,WUHU216HW,2017-12-14 10:08:00,
2017-12-14 05:10:00,17.5,-99.9,29.69,North,-9999,-999.9,0.0,0,0.00,,,0.00,WUHU216HW,2017-12-14 10:10:00,
2017-12-14 05:13:00,17.3,-99.9,29.80,North,-9999,-999.9,0.0,0,0.00,,,0.00,WUHU216HW,2017-12-14 10:13:00,
2017-12-14 05:14:00,17.3,-99.9,29.80,North,-9999,-999.9,0.0,0,0.00,,,0.00,WUHU216HW,2017-12-14 10:14:00,
2017-12-14 05:19:00,17.1,-99.9,29.81,North,-9999,-999.9,0.0,0,0.00,,,0.00,WUHU216HW,2017-12-14 10:19:00,
2017-12-14 05:24:00,16.9,-99.9,29.81,North,-9999,-999.9,0.0,0,0.00,,,0.00,WUHU216HW,2017-12-14 10:24:00,
2017-12-14 05:29:00,16.9,-99.9,29.82,North,-9999,-999.9,0.0,0,0.00,,,0.00,WUHU216HW,2017-12-14 10:29:00,
2017-12-14 05:34:00,16.7,-99.9,29.82,North,-9999,-999.9,0.0,0,0.00,,,0.00,WUHU216HW,2017-12-14 10:34:00,
2017-12-14 05:37:00,16.7,-99.9,29.72,North,-9999,-999.9,0.0,0,0.00,,,0.00,WUHU216HW,2017-12-14 10:37:00,
2017-12-14 05:42:00,16.6,-99.9,29.83,North,-9999,-999.9,0.0,0,0.00,,,0.00,WUHU216HW,2017-12-14 10:42:00,
2017-12-14 05:47:00,16.6,-99.9,29.84,North,-9999,-999.9,0.0,0,0.00,,,0.00,WUHU216HW,2017-12-14 10:47:00,
2017-12-14 05:49:00,16.6,-99.9,29.73,North,-9999,-999.9,0.0,0,0.00,,,0.00,WUHU216HW,2017-12-14 10:49:00,
2017-12-14 05:54:00,16.6,-99.9,29.85,North,-9999,-999.9,0.0,0,0.00,,,0.00,WUHU216HW,2017-12-14 10:54:00,
2017-12-14 05:59:00,16.6,-99.9,29.85,North,-9999,-999.9,0.0,0,0.00,,,0.00,WUHU216HW,2017-12-14 10:59:00,
2017-12-14 06:03:00,16.6,-99.9,29.75,North,-9999,-999.9,0.0,0,0.00,,,0.00,WUHU216HW,2017-12-14 11:03:00,
2017-12-14 06:04:00,16.4,-99.9,29.86,North,-9999,-999.9,0.0,0,0.00,,,0.00,WUHU216HW,2017-12-14 11:04:00,
2017-12-14 06:09:00,16.2,-99.9,29.87,North,-9999,-999.9,0.0,0,0.00,,,0.00,WUHU216HW,2017-12-14 11:09:00,
2017-12-14 06:14:00,16.2,-99.9,29.88,North,-9999,-999.9,0.0,0,0.00,,,0.00,WUHU216HW,2017-12-14 11:14:00,
2017-12-14 06:19:00,16.2,-99.9,29.88,North,-9999,-999.9,0.0,0,0.00,,,0.00,WUHU216HW,2017-12-14 11:19:00,
2017-12-14 06:24:00,16.0,-99.9,29.89,North,-9999,-999.9,0.0,0,0.00,,,0.00,WUHU216HW,2017-12-14 11:24:00,
2017-12-14 06:29:00,15.8,-99.9,29.89,North,-9999,-999.9,0.0,0,0.00,,,0.00,WUHU216HW,2017-12-14 11:29:00,
2017-12-14 06:30:00,15.8,-99.9,29.78,North,-9999,-999.9,0.0,0,0.00,,,0.00,WUHU216HW,2017-12-14 11:30:00,
2017-12-14 06:34:00,15.5,-99.9,29.90,North,-9999,-999.9,0.0,0,0.00,,,0.00,WUHU216HW,2017-12-14 11:34:00,
2017-12-14 06:40:00,15.5,-99.9,29.90,North,-9999,-999.9,0.0,0,0.00,,,0.00,WUHU216HW,2017-12-14 11:40:00,
2017-12-14 06:45:00,15.1,-99.9,29.90,North,-9999,-999.9,0.0,0,0.00,,,0.00,WUHU216HW,2017-12-14 11:45:00,
2017-12-14 06:50:00,14.9,-99.9,29.90,North,-9999,-999.9,0.0,0,0.00,,,0.00,WUHU216HW,2017-12-14 11:50:00,
2017-12-14 06:55:00,14.8,-99.9,29.91,North,-9999,-999.9,0.0,0,0.00,,,0.00,WUHU216HW,2017-12-14 11:55:00,
2017-12-14 07:00:00,14.8,-99.9,29.92,North,-9999,-999.9,0.0,0,0.00,,,0.00,WUHU216HW,2017-12-14 12:00:00,
2017-12-14 07:05:00,14.6,-99.9,29.92,North,-9999,-999.9,0.0,0,0.00,,,0.00,WUHU216HW,2017-12-14 12:05:00,
2017-12-14 07:10:00,14.4,-99.9,29.92,North,-9999,-999.9,0.0,0,0.00,,,0.00,WUHU216HW,2017-12-14 12:10:00,
2017-12-14 07:15:00,14.4,-99.9,29.92,North,-9999,-999.9,0.0,0,0.00,,,0.00,WUHU216HW,2017-12-14 12:15:00,
2017-12-14 07:19:00,14.2,-99.9,29.82,North,-9999,-999.9,0.0,0,0.00,,,0.00,WUHU216HW,2017-12-14 12:19:00,
2017-12-14 07:20:00,14.2,-99.9,29.93,North,-9999,-999.9,0.0,0,0.00,,,0.00,WUHU216HW,2017-12-14 12:20:00,
2017-12-14 07:25:00,14.0,-99.9,29.82,North,-9999,-999.9,0.0,0,0.00,,,0.00,WUHU216HW,2017-12-14 12:25:00,
2017-12-14 07:30:00,13.9,-99.9,29.93,North,-9999,-999.9,0.0,0,0.00,,,0.00,WUHU216HW,2017-12-14 12:30:00,
2017-12-14 07:33:00,13.7,-99.9,29.82,North,-9999,-999.9,0.0,0,0.00,,,0.00,WUHU216HW,2017-12-14 12:33:00,
2017-12-14 07:35:00,13.7,-99.9,29.94,North,-9999,-999.9,0.0,0,0.00,,,0.00,WUHU216HW,2017-12-14 12:35:00,
2017-12-14 07:38:00,13.7,-99.9,29.83,North,-9999,-999.9,0.0,0,0.00,,,0.00,WUHU216HW,2017-12-14 12:38:00,
2017-12-14 07:43:00,13.5,-99.9,29.94,North,-9999,-999.9,0.0,0,0.00,,,0.00,WUHU216HW,2017-12-14 12:43:00,
2017-12-14 07:48:00,13.3,-99.9,29.94,North,-9999,-999.9,0.0,0,0.00,,,0.00,WUHU216HW,2017-12-14 12:48:00,
2017-12-14 07:53:00,13.3,-99.9,29.94,North,-9999,-999.9,0.0,0,0.00,,,0.00,WUHU216HW,2017-12-14 12:53:00,
2017-12-14 07:58:00,13.1,-99.9,29.94,North,-9999,-999.9,0.0,0,0.00,,,0.00,WUHU216HW,2017-12-14 12:58:00,
2017-12-14 08:03:00,13.0,-99.9,29.95,North,-9999,-999.9,0.0,0,0.00,,,0.00,WUHU216HW,2017-12-14 13:03:00,
2017-12-14 08:08:00,12.8,-99.9,29.95,North,-9999,-999.9,0.0,0,0.00,,,0.00,WUHU216HW,2017-12-14 13:08:00,
2017-12-14 08:12:00,12.6,-99.9,29.84,North,-9999,-999.9,0.0,0,0.00,,,0.00,WUHU216HW,2017-12-14 13:12:00,
2017-12-14 08:13:00,12.6,-99.9,29.95,North,-9999,-999.9,0.0,0,0.00,,,0.00,WUHU216HW,2017-12-14 13:13:00,
2017-12-14 08:18:00,12.4,-99.9,29.95,North,-9999,-999.9,0.0,0,0.00,,,0.00,WUHU216HW,2017-12-14 13:18:00,
2017-12-14 08:23:00,12.4,-99.9,29.96,North,-9999,-999.9,0.0,0,0.00,,,0.00,WUHU216HW,2017-12-14 13:23:00,
2017-12-14 08:28:00,12.4,-99.9,29.97,North,-9999,-999.9,0.0,0,0.00,,,0.00,WUHU216HW,2017-12-14 13:28:00,
2017-12-14 08:33:00,12.2,-99.9,29.97,North,-9999,-999.9,0.0,0,0.00,,,0.00,WUHU216HW,2017-12-14 13:33:00,
2017-12-14 08:38:00,12.4,-99.9,29.97,North,-9999,-999.9,0.0,0,0.00,,,0.00,WUHU216HW,2017-12-14 13:38:00,
2017-12-14 08:43:00,12.6,-99.9,29.98,North,-9999,-999.9,0.0,0,0.00,,,0.00,WUHU216HW,2017-12-14 13:43:00,
2017-12-14 08:45:00,12.8,-99.9,29.87,North,-9999,-999.9,0.0,0,0.00,,,0.00,WUHU216HW,2017-12-14 13:45:00,
2017-12-14 08:50:00,13.1,-99.9,29.98,North,-9999,-999.9,0.0,0,0.00,,,0.00,WUHU216HW,2017-12-14 13:50:00,
2017-12-14 08:52:00,13.3,-99.9,29.88,North,-9999,-999.9,0.0,0,0.00,,,0.00,WUHU216HW,2017-12-14 13:52:00,
2017-12-14 08:57:00,13.3,-99.9,29.99,North,-9999,-999.9,0.0,0,0.00,,,0.00,WUHU216HW,2017-12-14 13:57:00,
2017-12-14 09:02:00,14.0,-99.9,29.99,North,-9999,-999.9,0.0,0,0.00,,,0.00,WUHU216HW,2017-12-14 14:02:00,
2017-12-14 09:07:00,14.0,-99.9,29.99,North,-9999,-999.9,0.0,0,0.00,,,0.00,WUHU216HW,2017-12-14 14:07:00,
2017-12-14 09:12:00,14.2,-99.9,30.00,North,-9999,-999.9,0.0,0,0.00,,,0.00,WUHU216HW,2017-12-14 14:12:00,
2017-12-14 09:17:00,14.4,-99.9,30.01,North,-9999,-999.9,0.0,0,0.00,,,0.00,WUHU216HW,2017-12-14 14:17:00,
2017-12-14 09:21:00,14.6,-99.9,29.90,North,-9999,-999.9,0.0,0,0.00,,,0.00,WUHU216HW,2017-12-14 14:21:00,
2017-12-14 09:26:00,14.9,-99.9,30.01,North,-9999,-999.9,0.0,0,0.00,,,0.00,WUHU216HW,2017-12-14 14:26:00,
2017-12-14 09:31:00,15.3,-99.9,30.01,North,-9999,-999.9,0.0,0,0.00,,,0.00,WUHU216HW,2017-12-14 14:31:00,
2017-12-14 09:35:00,15.5,-99.9,30.01,North,-9999,-999.9,0.0,0,0.00,,,0.00,WUHU216HW,2017-12-14 14:35:00,
2017-12-14 09:41:00,15.8,-99.9,30.02,North,-9999,-999.9,0.0,0,0.00,,,0.00,WUHU216HW,2017-12-14 14:41:00,
2017-12-14 09:45:00,16.0,-99.9,30.02,North,-9999,-999.9,0.0,0,0.00,,,0.00,WUHU216HW,2017-12-14 14:45:00,
2017-12-14 09:48:00,16.0,-99.9,29.91,North,-9999,-999.9,0.0,0,0.00,,,0.00,WUHU216HW,2017-12-14 14:48:00,
2017-12-14 09:53:00,16.0,-99.9,30.02,North,-9999,-999.9,0.0,0,0.00,,,0.00,WUHU216HW,2017-12-14 14:53:00,
2017-12-14 09:58:00,16.4,-99.9,30.03,North,-9999,-999.9,0.0,0,0.00,,,0.00,WUHU216HW,2017-12-14 14:58:00,
2017-12-14 10:03:00,16.9,-99.9,30.03,North,-9999,-999.9,0.0,0,0.00,,,0.00,WUHU216HW,2017-12-14 15:03:00,
2017-12-14 10:08:00,17.3,-99.9,30.03,North,-9999,-999.9,0.0,0,0.00,,,0.00,WUHU216HW,2017-12-14 15:08:00,
2017-12-14 10:13:00,17.5,-99.9,30.03,North,-9999,-999.9,0.0,0,0.00,,,0.00,WUHU216HW,2017-12-14 15:13:00,
2017-12-14 10:15:00,17.6,-99.9,29.93,North,-9999,-999.9,0.0,0,0.00,,,0.00,WUHU216HW,2017-12-14 15:15:00,
2017-12-14 10:17:00,17.6,-99.9,29.93,North,-9999,-999.9,0.0,0,0.00,,,0.00,WUHU216HW,2017-12-14 15:17:00,
2017-12-14 10:20:00,17.6,-99.9,30.04,North,-9999,-999.9,0.0,0,0.00,,,0.00,WUHU216HW,2017-12-14 15:20:00,
2017-12-14 10:25:00,17.8,-99.9,30.05,North,-9999,-999.9,0.0,0,0.00,,,0.00,WUHU216HW,2017-12-14 15:25:00,
2017-12-14 10:30:00,18.0,-99.9,30.05,North,-9999,-999.9,0.0,0,0.00,,,0.00,WUHU216HW,2017-12-14 15:30:00,
2017-12-14 10:35:00,18.4,-99.9,30.06,North,-9999,-999.9,0.0,0,0.00,,,0.00,WUHU216HW,2017-12-14 15:35:00,
2017-12-14 10:40:00,19.1,-99.9,30.06,North,-9999,-999.9,0.0,0,0.00,,,0.00,WUHU216HW,2017-12-14 15:40:00,
2017-12-14 10:43:00,19.1,-99.9,29.95,North,-9999,-999.9,0.0,0,0.00,,,0.00,WUHU216HW,2017-12-14 15:43:00,
2017-12-14 10:45:00,19.3,-99.9,30.06,North,-9999,-999.9,0.0,0,0.00,,,0.00,WUHU216HW,2017-12-14 15:45:00,
2017-12-14 10:50:00,19.4,-99.9,30.06,North,-9999,-999.9,0.0,0,0.00,,,0.00,WUHU216HW,2017-12-14 15:50:00,
2017-12-14 10:55:00,19.6,-99.9,29.94,North,-9999,-999.9,0.0,0,0.00,,,0.00,WUHU216HW,2017-12-14 15:55:00,
2017-12-14 10:57:00,19.4,-99.9,29.95,North,-9999,-999.9,0.0,0,0.00,,,0.00,WUHU216HW,2017-12-14 15:57:00,
2017-12-14 11:02:00,19.8,-99.9,30.05,North,-9999,-999.9,0.0,0,0.00,,,0.00,WUHU216HW,2017-12-14 16:02:00,
2017-12-14 11:07:00,19.8,-99.9,30.05,North,-9999,-999.9,0.0,0,0.00,,,0.00,WUHU216HW,2017-12-14 16:07:00,
2017-12-14 11:08:00,19.8,-99.9,29.94,North,-9999,-999.9,0.0,0,0.00,,,0.00,WUHU216HW,2017-12-14 16:08:00,
2017-12-14 11:12:00,19.8,-99.9,30.05,North,-9999,-999.9,0.0,0,0.00,,,0.00,WUHU216HW,2017-12-14 16:12:00,
2017-12-14 11:18:00,20.2,-99.9,30.05,North,-9999,-999.9,0.0,0,0.00,,,0.00,WUHU216HW,2017-12-14 16:18:00,
2017-12-14 11:22:00,20.5,-99.9,30.05,North,-9999,-999.9,0.0,0,0.00,,,0.00,WUHU216HW,2017-12-14 16:22:00,
2017-12-14 11:28:00,20.7,-99.9,30.06,North,-9999,-999.9,0.0,0,0.00,,,0.00,WUHU216HW,2017-12-14 16:28:00,
2017-12-14 11:33:00,21.2,-99.9,30.06,North,-9999,-999.9,0.0,0,0.00,,,0.00,WUHU216HW,2017-12-14 16:33:00,
2017-12-14 11:34:00,21.2,-99.9,29.95,North,-9999,-999.9,0.0,0,0.00,,,0.00,WUHU216HW,2017-12-14 16:34:00,
2017-12-14 11:38:00,21.6,-99.9,30.06,North,-9999,-999.9,0.0,0,0.00,,,0.00,WUHU216HW,2017-12-14 16:38:00,
2017-12-14 11:39:00,21.8,-99.9,29.94,North,-9999,-999.9,0.0,0,0.00,,,0.00,WUHU216HW,2017-12-14 16:39:00,
2017-12-14 11:44:00,22.3,-99.9,30.05,North,-9999,-999.9,0.0,0,0.00,,,0.00,WUHU216HW,2017-12-14 16:44:00,
2017-12-14 11:49:00,22.7,-99.9,30.06,North,-9999,-999.9,0.0,0,0.00,,,0.00,WUHU216HW,2017-12-14 16:49:00,
2017-12-14 11:54:00,22.9,-99.9,30.05,North,-9999,-999.9,0.0,0,0.00,,,0.00,WUHU216HW,2017-12-14 16:54:00,
2017-12-14 11:57:00,23.2,-99.9,29.95,North,-9999,-999.9,0.0,0,0.00,,,0.00,WUHU216HW,2017-12-14 16:57:00,
2017-12-14 12:02:00,23.8,-99.9,30.06,North,-9999,-999.9,0.0,0,0.00,,,0.00,WUHU216HW,2017-12-14 17:02:00,
2017-12-14 12:05:00,23.9,-99.9,29.95,North,-9999,-999.9,0.0,0,0.00,,,0.00,WUHU216HW,2017-12-14 17:05:00,
2017-12-14 12:10:00,24.5,-99.9,30.05,North,-9999,-999.9,0.0,0,0.00,,,0.00,WUHU216HW,2017-12-14 17:10:00,
2017-12-14 12:15:00,24.8,-99.9,30.05,North,-9999,-999.9,0.0,0,0.00,,,0.00,WUHU216HW,2017-12-14 17:15:00,
2017-12-14 12:20:00,24.8,-99.9,30.05,North,-9999,-999.9,0.0,0,0.00,,,0.00,WUHU216HW,2017-12-14 17:20:00,
2017-12-14 12:26:00,24.8,-99.9,30.05,North,-9999,-999.9,0.0,0,0.00,,,0.00,WUHU216HW,2017-12-14 17:26:00,
2017-12-14 12:28:00,24.8,-99.9,29.94,North,-9999,-999.9,0.0,0,0.00,,,0.00,WUHU216HW,2017-12-14 17:28:00,
2017-12-14 12:31:00,24.8,-99.9,30.05,North,-9999,-999.9,0.0,0,0.00,,,0.00,WUHU216HW,2017-12-14 17:31:00,
2017-12-14 12:36:00,25.2,-99.9,30.05,North,-9999,-999.9,0.0,0,0.00,,,0.00,WUHU216HW,2017-12-14 17:36:00,
2017-12-14 12:38:00,25.4,-99.9,29.94,North,-9999,-999.9,0.0,0,0.00,,,0.00,WUHU216HW,2017-12-14 17:38:00,
2017-12-14 12:43:00,25.6,-99.9,30.05,North,-9999,-999.9,0.0,0,0.00,,,0.00,WUHU216HW,2017-12-14 17:43:00,
2017-12-14 12:48:00,25.2,-99.9,30.05,North,-9999,-999.9,0.0,0,0.00,,,0.00,WUHU216HW,2017-12-14 17:48:00,
2017-12-14 12:53:00,25.6,-99.9,30.05,North,-9999,-999.9,0.0,0,0.00,,,0.00,WUHU216HW,2017-12-14 17:53:00,
2017-12-14 12:54:00,25.6,-99.9,30.05,North,-9999,-999.9,0.0,0,0.00,,,0.00,WUHU216HW,2017-12-14 17:54:00,
2017-12-14 12:59:00,25.9,-99.9,30.05,North,-9999,-999.9,0.0,0,0.00,,,0.00,WUHU216HW,2017-12-14 17:59:00,
2017-12-14 13:00:00,25.9,-99.9,29.95,North,-9999,-999.9,0.0,0,0.00,,,0.00,WUHU216HW,2017-12-14 18:00:00,
2017-12-14 13:04:00,25.9,-99.9,30.06,North,-9999,-999.9,0.0,0,0.00,,,0.00,WUHU216HW,2017-12-14 18:04:00,
2017-12-14 13:09:00,25.9,-99.9,30.06,North,-9999,-999.9,0.0,0,0.00,,,0.00,WUHU216HW,2017-12-14 18:09:00,
2017-12-14 13:14:00,26.1,-99.9,30.06,North,-9999,-999.9,0.0,0,0.00,,,0.00,WUHU216HW,2017-12-14 18:14:00,
2017-12-14 13:19:00,26.5,-99.9,30.06,North,-9999,-999.9,0.0,0,0.00,,,0.00,WUHU216HW,2017-12-14 18:19:00,
2017-12-14 13:24:00,26.3,-99.9,30.05,North,-9999,-999.9,0.0,0,0.00,,,0.00,WUHU216HW,2017-12-14 18:24:00,
2017-12-14 13:29:00,25.9,-99.9,30.05,North,-9999,-999.9,0.0,0,0.00,,,0.00,WUHU216HW,2017-12-14 18:29:00,
2017-12-14 13:34:00,25.7,-99.9,30.05,North,-9999,-999.9,0.0,0,0.00,,,0.00,WUHU216HW,2017-12-14 18:34:00,
2017-12-14 13:39:00,26.1,-99.9,30.05,North,-9999,-999.9,0.0,0,0.00,,,0.00,WUHU216HW,2017-12-14 18:39:00,
2017-12-14 13:44:00,26.3,-99.9,30.05,North,-9999,-999.9,0.0,0,0.00,,,0.00,WUHU216HW,2017-12-14 18:44:00,
2017-12-14 13:49:00,26.5,-99.9,30.05,North,-9999,-999.9,0.0,0,0.00,,,0.00,WUHU216HW,2017-12-14 18:49:00,
2017-12-14 13:54:00,26.5,-99.9,30.05,North,-9999,-999.9,0.0,0,0.00,,,0.00,WUHU216HW,2017-12-14 18:54:00,
2017-12-14 13:59:00,26.6,-99.9,30.05,North,-9999,-999.9,0.0,0,0.00,,,0.00,WUHU216HW,2017-12-14 18:59:00,
2017-12-14 14:04:00,26.3,-99.9,30.05,North,-9999,-999.9,0.0,0,0.00,,,0.00,WUHU216HW,2017-12-14 19:04:00,
2017-12-14 14:09:00,26.5,-99.9,30.05,North,-9999,-999.9,0.0,0,0.00,,,0.00,WUHU216HW,2017-12-14 19:09:00,
2017-12-14 14:14:00,27.0,-99.9,30.05,North,-9999,-999.9,0.0,0,0.00,,,0.00,WUHU216HW,2017-12-14 19:14:00,
2017-12-14 14:19:00,26.8,-99.9,30.05,North,-9999,-999.9,0.0,0,0.00,,,0.00,WUHU216HW,2017-12-14 19:19:00,
2017-12-14 14:24:00,27.0,-99.9,30.05,North,-9999,-999.9,0.0,0,0.00,,,0.00,WUHU216HW,2017-12-14 19:24:00,
2017-12-14 14:30:00,27.0,-99.9,30.05,North,-9999,-999.9,0.0,0,0.00,,,0.00,WUHU216HW,2017-12-14 19:30:00,
2017-12-14 14:35:00,27.0,-99.9,30.05,North,-9999,-999.9,0.0,0,0.00,,,0.00,WUHU216HW,2017-12-14 19:35:00,
2017-12-14 14:40:00,27.0,-99.9,30.05,North,-9999,-999.9,0.0,0,0.00,,,0.00,WUHU216HW,2017-12-14 19:40:00,
2017-12-14 14:45:00,27.0,-99.9,30.05,North,-9999,-999.9,0.0,0,0.00,,,0.00,WUHU216HW,2017-12-14 19:45:00,
2017-12-14 14:50:00,26.8,-99.9,30.05,North,-9999,-999.9,0.0,0,0.00,,,0.00,WUHU216HW,2017-12-14 19:50:00,
2017-12-14 14:55:00,26.5,-99.9,30.04,North,-9999,-999.9,0.0,0,0.00,,,0.00,WUHU216HW,2017-12-14 19:55:00,
2017-12-14 15:00:00,25.9,-99.9,30.04,North,-9999,-999.9,0.0,0,0.00,,,0.00,WUHU216HW,2017-12-14 20:00:00,
2017-12-14 15:05:00,25.6,-99.9,30.04,North,-9999,-999.9,0.0,0,0.00,,,0.00,WUHU216HW,2017-12-14 20:05:00,
2017-12-14 15:10:00,25.2,-99.9,30.03,North,-9999,-999.9,0.0,0,0.00,,,0.00,WUHU216HW,2017-12-14 20:10:00,
2017-12-14 15:14:00,25.0,-99.9,29.92,North,-9999,-999.9,0.0,0,0.00,,,0.00,WUHU216HW,2017-12-14 20:14:00,
2017-12-14 15:15:00,24.8,-99.9,30.03,North,-9999,-999.9,0.0,0,0.00,,,0.00,WUHU216HW,2017-12-14 20:15:00,
2017-12-14 15:20:00,24.8,-99.9,30.03,North,-9999,-999.9,0.0,0,0.00,,,0.00,WUHU216HW,2017-12-14 20:20:00,
2017-12-14 15:25:00,24.8,-99.9,30.03,North,-9999,-999.9,0.0,0,0.00,,,0.00,WUHU216HW,2017-12-14 20:25:00,
2017-12-14 15:27:00,25.0,-99.9,29.93,North,-9999,-999.9,0.0,0,0.00,,,0.00,WUHU216HW,2017-12-14 20:27:00,
2017-12-14 15:30:00,25.0,-99.9,29.93,North,-9999,-999.9,0.0,0,0.00,,,0.00,WUHU216HW,2017-12-14 20:30:00,
2017-12-14 15:32:00,25.0,-99.9,30.04,North,-9999,-999.9,0.0,0,0.00,,,0.00,WUHU216HW,2017-12-14 20:32:00,
2017-12-14 15:37:00,24.8,-99.9,30.04,North,-9999,-999.9,0.0,0,0.00,,,0.00,WUHU216HW,2017-12-14 20:37:00,
2017-12-14 15:40:00,24.8,-99.9,29.92,North,-9999,-999.9,0.0,0,0.00,,,0.00,WUHU216HW,2017-12-14 20:40:00,
2017-12-14 15:42:00,24.7,-99.9,30.03,North,-9999,-999.9,0.0,0,0.00,,,0.00,WUHU216HW,2017-12-14 20:42:00,
2017-12-14 15:47:00,24.3,-99.9,30.04,North,-9999,-999.9,0.0,0,0.00,,,0.00,WUHU216HW,2017-12-14 20:47:00,
2017-12-14 15:52:00,24.1,-99.9,30.04,North,-9999,-999.9,0.0,0,0.00,,,0.00,WUHU216HW,2017-12-14 20:52:00,
2017-12-14 15:57:00,24.1,-99.9,30.04,North,-9999,-999.9,0.0,0,0.00,,,0.00,WUHU216HW,2017-12-14 20:57:00,
2017-12-14 16:02:00,23.9,-99.9,30.05,North,-9999,-999.9,0.0,0,0.00,,,0.00,WUHU216HW,2017-12-14 21:02:00,
2017-12-14 16:07:00,23.6,-99.9,30.05,North,-9999,-999.9,0.0,0,0.00,,,0.00,WUHU216HW,2017-12-14 21:07:00,
2017-12-14 16:12:00,23.4,-99.9,30.05,North,-9999,-999.9,0.0,0,0.00,,,0.00,WUHU216HW,2017-12-14 21:12:00,
2017-12-14 16:17:00,23.4,-99.9,30.04,North,-9999,-999.9,0.0,0,0.00,,,0.00,WUHU216HW,2017-12-14 21:17:00,
2017-12-14 16:22:00,23.2,-99.9,30.05,North,-9999,-999.9,0.0,0,0.00,,,0.00,WUHU216HW,2017-12-14 21:22:00,
2017-12-14 16:27:00,23.0,-99.9,30.05,North,-9999,-999.9,0.0,0,0.00,,,0.00,WUHU216HW,2017-12-14 21:27:00,
2017-12-14 16:32:00,22.7,-99.9,30.06,North,-9999,-999.9,0.0,0,0.00,,,0.00,WUHU216HW,2017-12-14 21:32:00,
2017-12-14 16:37:00,22.3,-99.9,30.06,North,-9999,-999.9,0.0,0,0.00,,,0.00,WUHU216HW,2017-12-14 21:37:00,
2017-12-14 16:42:00,21.8,-99.9,30.06,North,-9999,-999.9,0.0,0,0.00,,,0.00,WUHU216HW,2017-12-14 21:42:00,
2017-12-14 16:47:00,21.4,-99.9,30.06,North,-9999,-999.9,0.0,0,0.00,,,0.00,WUHU216HW,2017-12-14 21:47:00,
2017-12-14 16:52:00,21.1,-99.9,30.07,North,-9999,-999.9,0.0,0,0.00,,,0.00,WUHU216HW,2017-12-14 21:52:00,
2017-12-14 16:57:00,20.7,-99.9,30.07,North,-9999,-999.9,0.0,0,0.00,,,0.00,WUHU216HW,2017-12-14 21:57:00,
2017-12-14 17:02:00,20.5,-99.9,30.07,North,-9999,-999.9,0.0,0,0.00,,,0.00,WUHU216HW,2017-12-14 22:02:00,
2017-12-14 17:05:00,20.3,-99.9,30.07,North,-9999,-999.9,0.0,0,0.00,,,0.00,WUHU216HW,2017-12-14 22:05:00,
2017-12-14 17:10:00,20.0,-99.9,30.06,North,-9999,-999.9,0.0,0,0.00,,,0.00,WUHU216HW,2017-12-14 22:10:00,
2017-12-14 17:15:00,19.8,-99.9,30.06,North,-9999,-999.9,0.0,0,0.00,,,0.00,WUHU216HW,2017-12-14 22:15:00,
2017-12-14 17:20:00,19.3,-99.9,30.06,North,-9999,-999.9,0.0,0,0.00,,,0.00,WUHU216HW,2017-12-14 22:20:00,
2017-12-14 17:25:00,18.7,-99.9,30.07,North,-9999,-999.9,0.0,0,0.00,,,0.00,WUHU216HW,2017-12-14 22:25:00,
2017-12-14 17:30:00,18.0,-99.9,30.08,North,-9999,-999.9,0.0,0,0.00,,,0.00,WUHU216HW,2017-12-14 22:30:00,
2017-12-14 17:35:00,17.6,-99.9,30.07,North,-9999,-999.9,0.0,0,0.00,,,0.00,WUHU216HW,2017-12-14 22:35:00,
2017-12-14 17:40:00,17.3,-99.9,30.07,North,-9999,-999.9,0.0,0,0.00,,,0.00,WUHU216HW,2017-12-14 22:40:00,
2017-12-14 17:45:00,16.9,-99.9,30.07,North,-9999,-999.9,0.0,0,0.00,,,0.00,WUHU216HW,2017-12-14 22:45:00,
2017-12-14 17:48:00,16.6,-99.9,30.08,North,-9999,-999.9,0.0,0,0.00,,,0.00,WUHU216HW,2017-12-14 22:48:00,
2017-12-14 17:53:00,15.8,-99.9,30.08,North,-9999,-999.9,0.0,0,0.00,,,0.00,WUHU216HW,2017-12-14 22:53:00,
2017-12-14 17:58:00,15.5,-99.9,30.08,North,-9999,-999.9,0.0,0,0.00,,,0.00,WUHU216HW,2017-12-14 22:58:00,
2017-12-14 18:03:00,15.1,-99.9,30.08,North,-9999,-999.9,0.0,0,0.00,,,0.00,WUHU216HW,2017-12-14 23:03:00,
2017-12-14 18:08:00,14.8,-99.9,30.08,North,-9999,-999.9,0.0,0,0.00,,,0.00,WUHU216HW,2017-12-14 23:08:00,
2017-12-14 18:13:00,14.8,-99.9,30.08,North,-9999,-999.9,0.0,0,0.00,,,0.00,WUHU216HW,2017-12-14 23:13:00,
2017-12-14 18:18:00,14.6,-99.9,30.09,North,-9999,-999.9,0.0,0,0.00,,,0.00,WUHU216HW,2017-12-14 23:18:00,
2017-12-14 18:23:00,14.2,-99.9,30.09,North,-9999,-999.9,0.0,0,0.00,,,0.00,WUHU216HW,2017-12-14 23:23:00,
2017-12-14 18:27:00,14.0,-99.9,30.09,North,-9999,-999.9,0.0,0,0.00,,,0.00,WUHU216HW,2017-12-14 23:27:00,
2017-12-14 18:32:00,13.1,-99.9,30.09,North,-9999,-999.9,0.0,0,0.00,,,0.00,WUHU216HW,2017-12-14 23:32:00,
2017-12-14 18:37:00,12.6,-99.9,30.09,North,-9999,-999.9,0.0,0,0.00,,,0.00,WUHU216HW,2017-12-14 23:37:00,
2017-12-14 18:42:00,12.2,-99.9,30.09,North,-9999,-999.9,0.0,0,0.00,,,0.00,WUHU216HW,2017-12-14 23:42:00,
2017-12-14 18:47:00,11.9,-99.9,30.09,North,-9999,-999.9,0.0,0,0.00,,,0.00,WUHU216HW,2017-12-14 23:47:00,
2017-12-14 18:52:00,11.9,-99.9,30.09,North,-9999,-999.9,0.0,0,0.00,,,0.00,WUHU216HW,2017-12-14 23:52:00,
2017-12-14 18:57:00,11.7,-99.9,30.09,North,-9999,-999.9,0.0,0,0.00,,,0.00,WUHU216HW,2017-12-14 23:57:00,
2017-12-14 19:02:00,11.5,-99.9,30.09,North,-9999,-999.9,0.0,0,0.00,,,0.00,WUHU216HW,2017-12-15 00:02:00,
2017-12-14 19:07:00,11.5,-99.9,30.09,North,-9999,-999.9,0.0,0,0.00,,,0.00,WUHU216HW,2017-12-15 00:07:00,
2017-12-14 19:12:00,11.2,-99.9,30.09,North,-9999,-999.9,0.0,0,0.00,,,0.00,WUHU216HW,2017-12-15 00:12:00,
2017-12-14 19:17:00,11.2,-99.9,30.09,North,-9999,-999.9,0.0,0,0.00,,,0.00,WUHU216HW,2017-12-15 00:17:00,
2017-12-14 19:21:00,11.2,-99.9,30.09,North,-9999,-999.9,0.0,0,0.00,,,0.00,WUHU216HW,2017-12-15 00:21:00,
2017-12-14 19:26:00,11.0,-99.9,30.09,North,-9999,-999.9,0.0,0,0.00,,,0.00,WUHU216HW,2017-12-15 00:26:00,
2017-12-14 19:31:00,10.8,-99.9,30.09,North,-9999,-999.9,0.0,0,0.00,,,0.00,WUHU216HW,2017-12-15 00:31:00,
2017-12-14 19:36:00,10.6,-99.9,30.09,North,-9999,-999.9,0.0,0,0.00,,,0.00,WUHU216HW,2017-12-15 00:36:00,
2017-12-14 19:41:00,10.4,-99.9,30.09,North,-9999,-999.9,0.0,0,0.00,,,0.00,WUHU216HW,2017-12-15 00:41:00,
2017-12-14 19:46:00,10.4,-99.9,30.09,North,-9999,-999.9,0.0,0,0.00,,,0.00,WUHU216HW,2017-12-15 00:46:00,
2017-12-14 19:51:00,10.1,-99.9,30.09,North,-9999,-999.9,0.0,0,0.00,,,0.00,WUHU216HW,2017-12-15 00:51:00,
2017-12-14 19:56:00,9.9,-99.9,30.09,North,-9999,-999.9,0.0,0,0.00,,,0.00,WUHU216HW,2017-12-15 00:56:00,
2017-12-14 20:01:00,9.9,-99.9,30.10,North,-9999,-999.9,0.0,0,0.00,,,0.00,WUHU216HW,2017-12-15 01:01:00,
2017-12-14 20:04:00,9.7,-99.9,30.09,North,-9999,-999.9,0.0,0,0.00,,,0.00,WUHU216HW,2017-12-15 01:04:00,
2017-12-14 20:09:00,9.7,-99.9,30.09,North,-9999,-999.9,0.0,0,0.00,,,0.00,WUHU216HW,2017-12-15 01:09:00,
2017-12-14 20:14:00,9.7,-99.9,30.09,North,-9999,-999.9,0.0,0,0.00,,,0.00,WUHU216HW,2017-12-15 01:14:00,
2017-12-14 20:19:00,9.7,-99.9,30.09,North,-9999,-999.9,0.0,0,0.00,,,0.00,WUHU216HW,2017-12-15 01:19:00,
2017-12-14 20:24:00,9.9,-99.9,30.09,North,-9999,-999.9,0.0,0,0.00,,,0.00,WUHU216HW,2017-12-15 01:24:00,
2017-12-14 20:25:00,9.9,-99.9,30.09,North,-9999,-999.9,0.0,0,0.00,,,0.00,WUHU216HW,2017-12-15 01:25:00,